Change the Weather History Date:

Friday, October 19, 2012

  Actual Average Record
Temperature  
Mean Temperature 58 °F 54 °F  
Max Temperature 60 °F 62 °F 78 °F (1940)
Min Temperature 55 °F 45 °F 27 °F (1949)
Degree Days  
Heating Degree Days 7 11  
Month to date heating degree days 129 159  
Since 1 July heating degree days 187 262  
Cooling Degree Days 0 0  
Month to date cooling degree days 1 0  
Year to date cooling degree days 436 422  
Growing Degree Days 6 (Base 50)    
Moisture  
Dew Point 52 °F    
Average Humidity 83    
Maximum Humidity 93    
Minimum Humidity 72    
Precipitation  
Precipitation 0.22 in 0.11 in 1.32 in (1947)
Month to date precipitation 2.25 1.49  
Year to date precipitation 30.76 23.40  
Snow  
Snow 0.00 in - - ()
Month to date snowfall 0.0  
Snow Depth 0.00 in    
Sea Level Pressure  
Sea Level Pressure 29.87 in    
Wind  
Wind Speed 10 mph (SW)    
Max Wind Speed 22 mph    
Max Gust Speed 28 mph    
Visibility 8 miles    
Events Rain    
T = Trace of Precipitation, MM = Missing Value Source: NWS Daily Summary

Daily Weather History Graph

Daily Weather History Graph

Search for Another Location

Airport or City:

Trip Planner

Search our weather history database for the weather conditions in past years. The results will help you decide how hot, cold, wet, or windy it might be!

Date:

Astronomy

Oct. 19, 2012 Rise Set
Actual Time 7:32 AM PDT 6:16 PM PDT
Civil Twilight 7:02 AM PDT 6:46 PM PDT
Nautical Twilight 6:28 AM PDT 7:21 PM PDT
Astronomical Twilight 5:53 AM PDT 7:55 PM PDT
Moon 12:31 PM PDT (10/19) 9:51 PM PDT (10/19)
Length of Visible Light 11h 44m
Length of Day
10h 43m
Waxing Crescent, 24% of the Moon is Illuminated
Oct 19
Waxing Crescent
Oct 21
First Quarter
Oct 29
Full
Nov 6
Last Quarter
Nov 13
New

Hourly Weather History & Observations

Time (PDT) Temp. Dew Point Humidity Pressure Visibility Wind Dir Wind Speed Gust Speed Precip Events Conditions
12:53 AM 57.0 °F 54.0 °F 89% 29.93 in 10.0 mi ESE 8.1 mph - N/A   Overcast
1:53 AM 57.0 °F 54.0 °F 89% 29.93 in 10.0 mi ESE 8.1 mph - 0.00 in Rain Light Rain
2:53 AM 57.9 °F 52.0 °F 81% 29.93 in 10.0 mi Calm Calm - 0.00 in Rain Light Rain
3:53 AM 57.0 °F 52.0 °F 83% 29.92 in 10.0 mi ESE 5.8 mph - 0.00 in   Mostly Cloudy
4:53 AM 57.0 °F 53.1 °F 87% 29.91 in 9.0 mi SE 5.8 mph - 0.00 in Rain Light Rain
5:53 AM 57.0 °F 50.0 °F 77% 29.91 in 10.0 mi SE 4.6 mph - 0.00 in   Overcast
6:29 AM 57.2 °F 48.2 °F 72% 29.91 in 10.0 mi Variable 4.6 mph - N/A   Overcast
6:53 AM 57.0 °F 48.9 °F 74% 29.93 in 10.0 mi Variable 3.5 mph - N/A   Overcast
7:53 AM 55.9 °F 46.9 °F 72% 29.93 in 10.0 mi South 9.2 mph 16.1 mph N/A   Overcast
8:53 AM 55.0 °F 48.0 °F 77% 29.94 in 10.0 mi Variable 5.8 mph 16.1 mph N/A   Overcast
9:53 AM 55.0 °F 48.9 °F 80% 29.94 in 10.0 mi SE 9.2 mph - N/A   Overcast
10:53 AM 57.0 °F 50.0 °F 77% 29.93 in 10.0 mi South 8.1 mph - N/A   Overcast
11:44 AM 57.2 °F 50.0 °F 77% 29.92 in 10.0 mi SSW 15.0 mph 19.6 mph N/A   Overcast
11:53 AM 57.9 °F 50.0 °F 75% 29.92 in 10.0 mi SSW 11.5 mph - N/A   Overcast
12:25 PM 57.2 °F 51.8 °F 82% 29.91 in 10.0 mi Variable 5.8 mph - N/A   Overcast
12:53 PM 57.9 °F 52.0 °F 81% 29.90 in 10.0 mi SW 15.0 mph 19.6 mph N/A   Overcast
1:53 PM 59.0 °F 54.0 °F 83% 29.87 in 10.0 mi SSW 12.7 mph 20.7 mph N/A   Overcast
2:53 PM 60.1 °F 52.0 °F 75% 29.84 in 10.0 mi SSW 18.4 mph - N/A   Mostly Cloudy
3:22 PM 59.0 °F 53.6 °F 82% 29.84 in 10.0 mi SSW 15.0 mph - N/A   Mostly Cloudy
3:53 PM 59.0 °F 53.1 °F 81% 29.83 in 10.0 mi South 18.4 mph 23.0 mph N/A   Mostly Cloudy
4:53 PM 57.9 °F 54.0 °F 87% 29.82 in 6.0 mi SSW 12.7 mph - 0.02 in Rain Heavy Rain
5:01 PM 57.2 °F 55.4 °F 94% 29.82 in 4.0 mi SW 8.1 mph - 0.06 in Rain Heavy Rain
5:04 PM 57.2 °F 55.4 °F 94% 29.82 in 2.0 mi SW 8.1 mph - 0.08 in Rain Heavy Rain
5:34 PM 57.2 °F 55.4 °F 94% 29.81 in 3.0 mi West 4.6 mph - 0.13 in Rain Light Rain
5:53 PM 57.9 °F 55.0 °F 90% 29.80 in 6.0 mi West 5.8 mph - 0.13 in Rain Light Rain
6:00 PM 57.2 °F 55.4 °F 94% 29.81 in 7.0 mi West 5.8 mph - 0.00 in Rain Light Rain
6:09 PM 57.2 °F 55.4 °F 94% 29.80 in 10.0 mi WNW 8.1 mph - 0.01 in Rain Light Rain
6:53 PM 55.0 °F 53.1 °F 93% 29.81 in 4.0 mi NW 9.2 mph - 0.05 in Rain Heavy Rain
7:09 PM 55.4 °F 53.6 °F 94% 29.81 in 6.0 mi NNW 5.8 mph - 0.04 in Rain Light Rain
7:53 PM 54.0 °F 53.1 °F 97% 29.82 in 10.0 mi WNW 3.5 mph - 0.06 in   Overcast
8:53 PM 54.0 °F 53.1 °F 97% 29.83 in 10.0 mi Calm Calm - N/A   Mostly Cloudy
9:53 PM 54.0 °F 52.0 °F 93% 29.85 in 10.0 mi SE 3.5 mph - N/A   Mostly Cloudy
10:44 PM 55.4 °F 53.6 °F 94% 29.85 in 4.0 mi North 8.1 mph - 0.01 in Rain Rain
10:53 PM 54.0 °F 53.1 °F 97% 29.86 in 3.0 mi NW 5.8 mph 16.1 mph 0.17 in Rain Heavy Rain
10:58 PM 53.6 °F 53.6 °F 100% 29.87 in 2.0 mi NNW 4.6 mph - 0.02 in Rain Rain
11:01 PM 53.6 °F 53.6 °F 100% 29.87 in 4.0 mi NNW 4.6 mph - 0.03 in Rain Light Rain
11:15 PM 53.6 °F 51.8 °F 94% 29.87 in 10.0 mi West 5.8 mph - 0.03 in Rain Light Rain
11:53 PM 54.0 °F 51.1 °F 90% 29.88 in 10.0 mi North 4.6 mph - 0.03 in   Overcast